DW8266 Weather Reports


Display with metric or nautical units.
time (UTC)temp
F
wind
direction
speed
MPH
gust
MPH
rain 1hr
in
rain 24hr
in
rain mn
in
humidity
%
barometer
mb
20260506230057 86 175 2.0 4.0 0.00 0.00 0.00 82 1008.2
20260506224558 86 175 1.0 3.0 0.00 0.00 0.00 81 1008.1
20260506223101 87 201 2.0 6.0 0.00 0.00 0.00 81 1008.3
20260506221603 87 167 1.0 8.0 0.00 0.00 0.00 81 1008.2
20260506214609 87 220 4.0 8.0 0.00 0.00 0.00 80 1008.1
20260506213059 87 216 3.0 7.0 0.00 0.00 0.00 81 1008.2
20260506211600 87 172 2.0 8.0 0.00 0.00 0.00 82 1008.2
20260506210059 87 145 3.0 9.0 0.00 0.00 0.00 83 1008.3
20260506204611 86 215 3.0 9.0 0.00 0.00 0.00 83 1008.4
20260506203058 86 157 2.0 7.0 0.00 0.00 0.00 84 1008.6
20260506201502 86 213 3.0 9.0 0.00 0.00 0.00 84 1008.8
20260506200002 85 188 3.0 7.0 0.00 0.00 0.00 85 1008.8
20260506194601 85 173 3.0 7.0 0.00 0.00 0.00 83 1008.9
20260506194502 85 175 3.0 7.0 0.00 0.00 0.00 83 1008.9
20260506193100 86 142 0.0 6.0 0.00 0.00 0.00 83 1008.9
20260506193001 86 142 1.0 6.0 0.00 0.00 0.00 82 1009.0
20260506191601 86 207 5.0 8.0 0.00 0.00 0.00 83 1009.2
20260506190100 86 158 2.0 5.0 0.00 0.00 0.00 83 1009.3
20260506190003 86 167 2.0 4.0 0.00 0.00 0.00 84 1009.3
20260506184600 87 157 0.0 6.0 0.00 0.00 0.00 85 1009.4
20260506183108 86 160 1.0 5.0 0.00 0.00 0.00 86 1009.6
20260506183002 86 160 1.0 5.0 0.00 0.00 0.00 86 1009.6
20260506181600 85 146 0.0 5.0 0.00 0.00 0.00 85 1009.9
20260506180006 84 154 1.0 3.0 0.00 0.00 0.00 87 1010.1
20260506174608 83 161 0.0 5.0 0.00 0.00 0.00 88 1010.4
20260506171600 82 160 1.0 4.0 0.00 0.00 0.00 88 1010.8
20260506170100 82 153 0.0 5.0 0.00 0.00 0.00 88 1010.9
20260506170002 82 153 1.0 5.0 0.00 0.00 0.00 89 1010.9
20260506164601 82 150 1.0 5.0 0.00 0.00 0.00 90 1011.0
20260506163103 80 169 1.0 6.0 0.00 0.00 0.00 91 1010.8
20260506161611 80 154 0.0 5.0 0.00 0.00 0.00 90 1010.4
20260506160001 80 150 1.0 3.0 0.00 0.00 0.00 90 1010.4
20260506154602 80 92 1.0 3.0 0.00 0.00 0.00 91 1010.3
20260506153059 80 155 0.0 3.0 0.00 0.00 0.00 90 1010.4
20260506151600 80 154 0.0 3.0 0.00 0.00 0.00 91 1009.9
20260506150104 79 150 0.0 5.0 0.00 0.00 0.00 92 1009.8
20260506150002 79 150 0.0 5.0 0.00 0.00 0.00 92 1009.8
20260506144612 79 121 0.0 2.0 0.00 0.00 0.00 92 1009.7
20260506143059 79 153 1.0 4.0 0.00 0.00 0.00 93 1009.3
20260506141601 78 169 0.0 5.0 0.00 0.00 0.00 93 1009.4
20260506140122 78 63 0.0 3.0 0.00 0.00 0.00 94 1009.4
20260506140003 78 137 0.0 2.0 0.00 0.00 0.00 94 1009.4
20260506134600 77 129 0.0 2.0 0.00 0.00 0.00 94 1009.6
20260506133135 77 152 0.0 2.0 0.00 0.00 0.00 94 1009.6
20260506131600 77 151 0.0 2.0 0.00 0.00 0.00 94 1009.7
20260506130139 76 154 0.0 1.0 0.00 0.00 0.00 94 1009.7
20260506130003 76 154 0.0 1.0 0.00 0.00 0.00 94 1009.7
20260506124600 76 154 0.0 1.0 0.00 0.00 0.00 94 1009.7
20260506123101 76 154 0.0 2.0 0.00 0.00 0.00 94 1009.7
20260506121602 76 154 0.0 2.0 0.00 0.00 0.00 94 1009.4
20260506120105 76 154 0.0 1.0 0.00 0.00 0.00 94 1009.2
20260506120002 76 154 0.0 1.0 0.00 0.00 0.00 94 1009.2
20260506114606 76 154 0.0 2.0 0.00 0.00 0.00 94 1009.2
20260506113100 76 154 0.0 2.0 0.00 0.00 0.00 94 1009.0
20260506111600 76 144 0.0 3.0 0.00 0.00 0.00 94 1008.8
20260506110002 76 153 1.0 6.0 0.00 0.00 0.00 94 1008.7
20260506104606 76 175 0.0 2.0 0.00 0.00 0.00 94 1008.6
20260506103107 76 175 0.0 1.0 0.00 0.00 0.00 93 1008.6
20260506101559 76 175 0.0 2.0 0.00 0.00 0.00 93 1008.7
20260506100109 76 175 0.0 3.0 0.00 0.00 0.00 93 1008.5
20260506100002 76 175 0.0 4.0 0.00 0.00 0.00 93 1008.5
20260506094605 76 196 0.0 3.0 0.00 0.00 0.00 93 1008.4
20260506093059 76 119 1.0 5.0 0.00 0.00 0.00 93 1008.3
20260506091557 76 153 1.0 4.0 0.00 0.00 0.00 93 1008.5
20260506090056 77 166 2.0 6.0 0.00 0.00 0.00 93 1008.6
20260506084600 77 168 2.0 5.0 0.00 0.00 0.00 93 1008.6
20260506083100 77 168 1.0 5.0 0.00 0.00 0.00 93 1008.8
20260506081609 77 139 1.0 5.0 0.00 0.00 0.00 93 1008.8
20260506073059 77 117 1.0 5.0 0.00 0.00 0.00 93 1009.1
20260506071559 77 167 1.0 5.0 0.00 0.00 0.00 93 1009.1
20260506061559 77 165 0.0 6.0 0.00 0.00 0.00 93 1009.4
20260506044559 78 157 0.0 5.0 0.00 0.00 0.00 92 1009.4
20260506043110 78 157 0.0 4.0 0.00 0.00 0.00 92 1009.5
20260506041559 78 164 0.0 4.0 0.00 0.00 0.00 91 1009.1
20260506040059 78 171 1.0 4.0 0.00 0.00 0.00 91 1009.3
20260506034615 78 192 1.0 7.0 0.00 0.00 0.00 91 1009.1
20260506033058 78 138 1.0 5.0 0.00 0.00 0.00 90 1008.8
20260506031606 78 158 2.0 5.0 0.00 0.00 0.00 90 1008.8
20260506030059 78 155 1.0 5.0 0.00 0.00 0.00 90 1008.8
20260506030003 78 146 2.0 5.0 0.00 0.00 0.00 90 1008.8
20260506024558 79 161 3.0 7.0 0.00 0.00 0.00 90 1008.5
20260506023105 79 166 2.0 7.0 0.00 0.00 0.00 90 1008.5
20260506021601 79 163 1.0 6.0 0.00 0.00 0.00 89 1008.2
20260506020059 79 163 3.0 9.0 0.00 0.00 0.00 89 1008.0
20260506014559 79 137 3.0 7.0 0.00 0.00 0.00 89 1007.8
20260506013110 79 139 1.0 5.0 0.00 0.00 0.00 88 1007.5
20260506011601 80 167 1.0 6.0 0.00 0.00 0.00 87 1007.2
20260506010120 80 175 3.0 8.0 0.00 0.00 0.00 87 1007.1
20260506004557 80 105 2.0 7.0 0.00 0.00 0.00 86 1007.1
20260506003117 80 192 3.0 7.0 0.00 0.00 0.00 86 1006.7
20260506000058 81 156 3.0 9.0 0.00 0.00 0.00 85 1007.0
20260505234558 81 167 2.0 10.0 0.00 0.00 0.00 85 1006.7
20260505233111 81 167 3.0 8.0 0.00 0.00 0.00 85 1006.8
20260505231559 82 205 4.0 12.0 0.00 0.00 0.00 84 1006.8